contact:dominique.lefevre@mio.osupytheas.fr, maurice.libes@osupytheas.fr, didier.mallarino@osupytheas.fr
Project:EMSO http://www.emso-fr.org/EMSO-France
Depth: 2436.0 m
Title:EMSO Ligure Ouest : Data MII capteur AQUADOPP
Date,Latitude,Longitude,X_East,Y_North,Z_Up,Amplitude_X,Amplitude_Y,Amplitude_Z,Batterie,SoundSpeed,Heading,Pitch,Roll,Pressure,TIS,Speed,Direction
, degrees North, degrees East, m.s-1, m.s-1,m.s-1, 1, 1, 1, Volt, m.s-1, degree, degree, degree, dbar, degree_C, m.s-1, degree
2022-11-04T00:04:03,42.805,6.029,0.017,0.003,0.01,101.0,102.0,101.0,13.3,1505.2,330.2,-0.7,1.8,2471.073,13.28,0.017,80.0
2022-11-04T00:07:03,42.805,6.029,0.018,-0.013,-0.031,101.0,102.0,100.0,13.4,1505.2,328.7,-0.8,1.8,2471.062,13.28,0.022,125.8
2022-11-04T00:10:03,42.805,6.029,0.01,0.006,0.01,100.0,103.0,101.0,13.3,1505.2,322.8,-0.8,1.8,2471.073,13.28,0.011,59.0
2022-11-04T00:13:03,42.805,6.029,0.004,-0.007,-0.016,101.0,102.0,101.0,13.4,1505.2,322.8,-0.8,1.9,2471.062,13.28,0.008,150.3
2022-11-04T00:16:03,42.805,6.029,0.012,0.006,0.002,100.0,103.0,101.0,13.4,1505.2,325.9,-0.7,1.8,2471.091,13.28,0.013,63.4
2022-11-04T00:19:03,42.805,6.029,0.011,-0.01,-0.016,102.0,101.0,101.0,13.4,1505.2,322.8,-0.7,1.8,2471.039,13.28,0.014,132.3
2022-11-04T00:22:03,42.805,6.029,0.032,0.002,-0.027,100.0,102.0,101.0,13.3,1505.2,326.5,-0.8,1.8,2471.059,13.29,0.032,86.4
2022-11-04T00:25:03,42.805,6.029,0.026,-0.009,-0.016,101.0,101.0,100.0,13.4,1505.2,318.9,-0.7,1.9,2471.074,13.29,0.027,109.1
2022-11-04T00:28:03,42.805,6.029,0.036,0.005,0.023,100.0,102.0,101.0,13.3,1505.2,328.3,-0.8,1.8,2471.046,13.29,0.036,82.1
2022-11-04T00:31:03,42.805,6.029,0.019,-0.014,-0.024,101.0,100.0,100.0,13.3,1505.2,319.8,-0.8,1.8,2471.087,13.29,0.023,126.4
2022-11-04T00:34:03,42.805,6.029,0.019,-0.007,-0.005,101.0,101.0,100.0,13.4,1505.2,326.3,-0.7,1.8,2471.072,13.29,0.02,110.2
2022-11-04T00:37:03,42.805,6.029,0.031,-0.011,-0.008,101.0,101.0,101.0,13.4,1505.2,328.6,-0.8,1.8,2471.039,13.29,0.032,109.5
2022-11-04T00:40:03,42.805,6.029,0.007,0.0,0.011,100.0,103.0,100.0,13.4,1505.2,328.2,-0.8,1.8,2471.025,13.29,0.007,90.0
2022-11-04T00:43:03,42.805,6.029,0.013,-0.005,0.002,102.0,101.0,100.0,13.3,1505.2,326.7,-0.8,1.8,2471.051,13.29,0.013,111.0
2022-11-04T00:46:03,42.805,6.029,0.032,-0.005,0.015,101.0,102.0,100.0,13.4,1505.2,323.7,-0.8,1.9,2471.048,13.29,0.032,98.9
2022-11-04T00:49:03,42.805,6.029,0.035,-0.005,-0.021,101.0,102.0,100.0,13.3,1505.2,317.3,-0.8,1.8,2471.093,13.29,0.035,98.1
2022-11-04T00:52:03,42.805,6.029,0.011,0.001,0.019,101.0,101.0,100.0,13.4,1505.2,332.1,-0.7,1.8,2471.087,13.29,0.011,84.8
2022-11-04T00:55:03,42.805,6.029,0.033,0.005,0.001,101.0,101.0,101.0,13.4,1505.2,317.7,-0.8,1.8,2471.063,13.29,0.033,81.4
2022-11-04T00:58:03,42.805,6.029,0.031,-0.001,0.003,102.0,101.0,101.0,13.3,1505.2,326.7,-0.8,1.8,2471.045,13.29,0.031,91.8
2022-11-04T01:04:03,42.805,6.029,-0.013,0.015,-0.021,103.0,102.0,102.0,13.3,1505.2,328.3,-0.8,1.8,2471.085,13.28,0.019,319.1
2022-11-04T01:07:03,42.805,6.029,-0.006,0.0,-0.014,101.0,101.0,100.0,13.3,1505.2,325.1,-0.8,1.8,2471.106,13.28,0.006,270.0
2022-11-04T01:10:03,42.805,6.029,0.009,0.003,-0.039,102.0,102.0,101.0,13.4,1505.2,329.8,-0.8,1.8,2471.104,13.28,0.009,71.6
2022-11-04T01:13:03,42.805,6.029,0.013,-0.012,0.008,99.0,103.0,102.0,13.3,1505.2,330.3,-0.8,1.9,2471.119,13.28,0.017,132.7
2022-11-04T01:16:03,42.805,6.029,0.021,-0.003,-0.003,101.0,102.0,100.0,13.3,1505.2,327.1,-0.8,1.8,2471.107,13.29,0.021,98.1
2022-11-04T01:19:03,42.805,6.029,0.033,0.0,0.008,101.0,102.0,100.0,13.4,1505.2,324.6,-0.8,1.8,2471.12,13.29,0.033,90.0
2022-11-04T01:22:03,42.805,6.029,0.009,0.003,0.004,101.0,103.0,101.0,13.3,1505.2,325.1,-0.7,1.8,2471.107,13.29,0.009,71.6
2022-11-04T01:25:03,42.805,6.029,-0.009,0.007,-0.012,101.0,102.0,100.0,13.3,1505.2,323.3,-0.8,1.8,2471.103,13.29,0.011,307.9
2022-11-04T01:28:03,42.805,6.029,0.01,-0.007,-0.048,103.0,100.0,100.0,13.4,1505.2,329.6,-0.8,1.8,2471.056,13.29,0.012,125.0
2022-11-04T01:31:03,42.805,6.029,0.015,0.006,-0.022,102.0,102.0,100.0,13.4,1505.2,321.8,-0.8,1.8,2471.067,13.29,0.016,68.2
2022-11-04T01:34:03,42.805,6.029,0.034,-0.001,-0.003,100.0,102.0,101.0,13.4,1505.2,329.7,-0.8,1.8,2471.096,13.29,0.034,91.7
2022-11-04T01:37:03,42.805,6.029,0.013,-0.007,-0.006,102.0,102.0,101.0,13.4,1505.2,329.2,-0.8,1.8,2471.067,13.29,0.014,118.3
2022-11-04T01:40:03,42.805,6.029,0.032,0.003,-0.026,101.0,101.0,101.0,13.4,1505.2,321.0,-0.7,1.8,2471.091,13.29,0.032,84.6
2022-11-04T01:43:03,42.805,6.029,-0.005,0.003,0.001,102.0,102.0,100.0,13.4,1505.2,328.2,-0.7,1.8,2471.072,13.29,0.005,301.0
2022-11-04T01:46:03,42.805,6.029,0.002,0.01,0.002,102.0,102.0,101.0,13.4,1505.2,328.6,-0.7,1.8,2471.091,13.29,0.01,11.3
2022-11-04T01:49:03,42.805,6.029,0.022,0.015,0.018,102.0,102.0,101.0,13.4,1505.2,320.0,-0.8,1.8,2471.043,13.29,0.026,55.7
2022-11-04T01:52:03,42.805,6.029,0.009,0.018,0.006,103.0,100.0,101.0,13.4,1505.2,323.7,-0.8,1.8,2471.05,13.29,0.02,26.6
2022-11-04T01:55:03,42.805,6.029,0.023,0.009,-0.017,101.0,103.0,100.0,13.4,1505.2,329.4,-0.8,1.8,2471.096,13.29,0.024,68.6
2022-11-04T01:58:03,42.805,6.029,0.006,0.009,-0.009,102.0,103.0,100.0,13.4,1505.2,329.6,-0.8,1.8,2471.117,13.29,0.01,33.7
2022-11-04T02:04:03,42.805,6.029,0.024,0.003,0.02,101.0,102.0,100.0,13.4,1505.2,325.2,-0.8,1.8,2471.138,13.28,0.024,82.9
2022-11-04T02:07:03,42.805,6.029,0.01,-0.014,0.01,101.0,102.0,100.0,13.4,1505.2,324.6,-0.7,1.8,2471.122,13.28,0.017,144.5
2022-11-04T02:10:03,42.805,6.029,0.013,-0.009,-0.03,100.0,103.0,100.0,13.4,1505.2,325.5,-0.7,1.8,2471.109,13.28,0.015,124.7
2022-11-04T02:13:03,42.805,6.029,-0.002,0.01,0.005,101.0,102.0,100.0,13.4,1505.2,320.1,-0.7,1.8,2471.137,13.28,0.01,348.7
2022-11-04T02:16:03,42.805,6.029,0.034,-0.011,-0.007,102.0,101.0,101.0,13.3,1505.2,330.8,-0.8,1.8,2471.117,13.29,0.035,107.9
2022-11-04T02:19:03,42.805,6.029,-0.013,0.001,-0.005,101.0,101.0,100.0,13.4,1505.2,320.6,-0.8,1.8,2471.118,13.29,0.013,274.4
2022-11-04T02:22:03,42.805,6.029,0.023,-0.007,-0.025,102.0,102.0,100.0,13.4,1505.2,322.9,-0.8,1.8,2471.132,13.29,0.024,106.9
2022-11-04T02:25:03,42.805,6.029,0.012,-0.014,-0.003,101.0,101.0,101.0,13.4,1505.2,328.5,-0.8,1.8,2471.09,13.29,0.018,139.4
2022-11-04T02:28:03,42.805,6.029,0.029,-0.02,-0.039,100.0,102.0,100.0,13.4,1505.2,327.6,-0.8,1.8,2471.1,13.29,0.035,124.6
2022-11-04T02:31:03,42.805,6.029,0.012,-0.004,-0.025,101.0,99.0,100.0,13.4,1505.2,320.8,-0.8,1.8,2471.091,13.29,0.012,108.4
2022-11-04T02:34:03,42.805,6.029,0.038,0.025,0.031,101.0,102.0,100.0,13.4,1505.2,318.5,-0.8,1.8,2471.103,13.29,0.045,56.7
2022-11-04T02:37:03,42.805,6.029,0.024,0.013,0.031,100.0,102.0,100.0,13.4,1505.2,324.4,-0.8,1.8,2471.093,13.29,0.027,61.6
2022-11-04T02:40:03,42.805,6.029,0.004,0.011,0.003,101.0,102.0,100.0,13.4,1505.2,335.3,-0.8,1.8,2471.099,13.29,0.011,20.0
2022-11-04T02:43:03,42.805,6.029,0.033,-0.005,0.016,102.0,101.0,100.0,13.3,1505.2,318.1,-0.8,1.8,2471.087,13.29,0.033,98.6
2022-11-04T02:46:03,42.805,6.029,-0.003,0.004,-0.017,101.0,100.0,101.0,13.4,1505.2,318.9,-0.8,1.8,2471.103,13.29,0.005,323.1
2022-11-04T02:49:03,42.805,6.029,0.004,0.026,0.016,101.0,100.0,100.0,13.3,1505.2,333.1,-0.7,1.9,2471.129,13.29,0.026,8.7
2022-11-04T02:52:03,42.805,6.029,0.036,-0.017,-0.027,103.0,99.0,101.0,13.4,1505.2,324.1,-0.7,1.8,2471.121,13.29,0.039,115.3
2022-11-04T02:55:03,42.805,6.029,0.032,0.003,0.002,99.0,102.0,100.0,13.4,1505.2,329.8,-0.8,1.8,2471.116,13.29,0.032,84.6
2022-11-04T02:58:03,42.805,6.029,0.017,-0.005,-0.013,101.0,100.0,100.0,13.3,1505.2,325.9,-0.8,1.8,2471.126,13.29,0.017,106.4
2022-11-04T03:04:03,42.805,6.029,-0.001,0.008,-0.007,101.0,101.0,101.0,13.3,1505.2,327.0,-0.7,1.8,2471.15,13.28,0.008,352.9
2022-11-04T03:07:03,42.805,6.029,0.002,0.0,-0.026,101.0,101.0,101.0,13.3,1505.2,325.2,-0.8,1.8,2471.145,13.28,0.002,90.0
2022-11-04T03:10:03,42.805,6.029,0.0,0.015,-0.022,100.0,101.0,100.0,13.4,1505.2,330.4,-0.7,1.8,2471.107,13.28,0.015,0.0
2022-11-04T03:13:03,42.805,6.029,-0.003,-0.01,-0.03,101.0,99.0,100.0,13.4,1505.2,324.1,-0.7,1.8,2471.147,13.28,0.01,196.7
2022-11-04T03:16:03,42.805,6.029,0.005,0.009,0.008,100.0,101.0,100.0,13.3,1505.2,323.5,-0.8,1.9,2471.144,13.29,0.01,29.1
2022-11-04T03:19:03,42.805,6.029,0.011,-0.009,-0.012,99.0,101.0,101.0,13.4,1505.2,327.0,-0.8,1.8,2471.125,13.29,0.014,129.3
2022-11-04T03:22:03,42.805,6.029,0.011,0.004,-0.001,101.0,101.0,100.0,13.3,1505.2,329.4,-0.7,1.8,2471.16,13.29,0.011,70.0
2022-11-04T03:25:03,42.805,6.029,0.015,0.01,-0.003,99.0,102.0,101.0,13.3,1505.2,317.2,-0.8,1.8,2471.095,13.29,0.018,56.3
2022-11-04T03:28:03,42.805,6.029,0.014,-0.012,-0.031,99.0,103.0,101.0,13.3,1505.2,335.7,-0.7,1.8,2471.149,13.29,0.018,130.6
2022-11-04T03:31:03,42.805,6.029,0.001,0.011,-0.004,100.0,102.0,101.0,13.4,1505.2,317.2,-0.7,1.8,2471.131,13.29,0.011,5.2
2022-11-04T03:34:03,42.805,6.029,0.006,0.026,0.028,101.0,100.0,100.0,13.4,1505.2,323.7,-0.8,1.8,2471.137,13.29,0.026,13.0
2022-11-04T03:37:03,42.805,6.029,0.003,0.0,-0.019,102.0,99.0,99.0,13.3,1505.2,329.9,-0.7,1.8,2471.127,13.29,0.003,90.0
2022-11-04T03:40:03,42.805,6.029,0.015,0.0,-0.009,102.0,100.0,100.0,13.3,1505.2,322.9,-0.8,1.8,2471.099,13.29,0.015,90.0
2022-11-04T03:43:03,42.805,6.029,0.009,0.01,-0.003,100.0,101.0,101.0,13.4,1505.2,327.0,-0.7,1.8,2471.146,13.29,0.013,42.0
2022-11-04T03:46:03,42.805,6.029,-0.003,0.012,0.002,101.0,102.0,99.0,13.4,1505.2,327.2,-0.8,1.8,2471.143,13.29,0.012,346.0
2022-11-04T03:49:03,42.805,6.029,0.002,0.006,-0.006,102.0,101.0,100.0,13.4,1505.2,317.8,-0.8,1.8,2471.122,13.29,0.006,18.4
2022-11-04T03:52:03,42.805,6.029,0.011,0.011,-0.008,101.0,101.0,99.0,13.3,1505.2,319.1,-0.7,1.8,2471.133,13.29,0.015,45.0
2022-11-04T03:55:03,42.805,6.029,0.035,0.01,0.014,101.0,102.0,100.0,13.4,1505.2,320.2,-0.7,1.8,2471.144,13.29,0.036,74.1
2022-11-04T03:58:03,42.805,6.029,0.031,-0.021,-0.017,102.0,101.0,100.0,13.3,1505.2,331.4,-0.8,1.8,2471.118,13.29,0.037,124.1
2022-11-04T04:04:03,42.805,6.029,0.015,0.005,0.017,100.0,102.0,101.0,13.4,1505.2,329.9,-0.7,1.8,2471.188,13.28,0.015,71.6
2022-11-04T04:07:03,42.805,6.029,0.0,0.009,-0.028,102.0,100.0,100.0,13.4,1505.2,333.0,-0.8,1.9,2471.194,13.28,0.009,0.0
2022-11-04T04:10:03,42.805,6.029,0.028,0.005,0.0,100.0,102.0,100.0,13.4,1505.2,325.4,-0.8,1.8,2471.194,13.28,0.028,79.9
2022-11-04T04:13:03,42.805,6.029,0.007,0.007,-0.043,101.0,101.0,100.0,13.4,1505.2,318.5,-0.8,1.8,2471.168,13.29,0.009,45.0
2022-11-04T04:16:03,42.805,6.029,-0.003,0.004,0.015,102.0,101.0,100.0,13.3,1505.2,324.8,-0.8,1.8,2471.115,13.29,0.005,323.1
2022-11-04T04:19:03,42.805,6.029,0.011,-0.001,0.005,101.0,102.0,101.0,13.3,1505.2,321.7,-0.8,1.8,2471.165,13.29,0.011,95.2
2022-11-04T04:22:03,42.805,6.029,-0.002,-0.005,-0.03,99.0,102.0,100.0,13.3,1505.2,322.5,-0.8,1.8,2471.17,13.29,0.005,201.8
2022-11-04T04:25:03,42.805,6.029,0.003,0.004,-0.023,101.0,101.0,101.0,13.4,1505.2,331.7,-0.8,1.8,2471.141,13.29,0.005,36.9
2022-11-04T04:28:03,42.805,6.029,0.013,-0.002,0.013,102.0,101.0,100.0,13.4,1505.2,318.8,-0.8,1.8,2471.139,13.29,0.013,98.7
2022-11-04T04:31:03,42.805,6.029,0.01,0.023,-0.005,101.0,102.0,100.0,13.3,1505.2,322.7,-0.8,1.8,2471.133,13.29,0.025,23.5
2022-11-04T04:34:03,42.805,6.029,0.006,0.012,0.017,101.0,101.0,101.0,13.3,1505.2,325.7,-0.8,1.9,2471.137,13.29,0.013,26.6
2022-11-04T04:37:03,42.805,6.029,0.006,-0.02,-0.026,101.0,102.0,100.0,13.4,1505.2,317.6,-0.8,1.8,2471.107,13.29,0.02,163.3
2022-11-04T04:40:03,42.805,6.029,0.002,0.01,0.011,100.0,103.0,101.0,13.4,1505.2,327.1,-0.7,1.8,2471.159,13.29,0.01,11.3
2022-11-04T04:43:03,42.805,6.029,0.046,0.004,0.002,102.0,102.0,100.0,13.3,1505.2,321.1,-0.7,1.8,2471.161,13.29,0.046,85.0
2022-11-04T04:46:03,42.805,6.029,-0.007,0.001,-0.028,101.0,103.0,100.0,13.4,1505.2,329.7,-0.7,1.8,2471.147,13.29,0.007,278.1
2022-11-04T04:49:03,42.805,6.029,0.007,0.005,-0.017,102.0,102.0,100.0,13.3,1505.2,325.3,-0.8,1.8,2471.149,13.29,0.008,54.5
2022-11-04T04:52:03,42.805,6.029,0.015,0.0,0.001,102.0,102.0,100.0,13.3,1505.2,330.9,-0.8,1.8,2471.149,13.29,0.015,90.0
2022-11-04T04:55:03,42.805,6.029,-0.004,-0.007,-0.021,101.0,102.0,100.0,13.4,1505.2,325.6,-0.8,1.8,2471.182,13.29,0.008,209.7
2022-11-04T04:58:03,42.805,6.029,0.025,0.009,-0.005,100.0,101.0,101.0,13.4,1505.2,329.9,-0.7,1.8,2471.153,13.29,0.026,70.2
2022-11-04T05:04:03,42.805,6.029,0.012,0.015,0.039,101.0,102.0,100.0,13.3,1505.2,326.3,-0.7,1.8,2471.166,13.28,0.019,38.7
2022-11-04T05:07:03,42.805,6.029,0.02,0.009,0.019,101.0,101.0,101.0,13.4,1505.2,322.6,-0.8,1.8,2471.178,13.28,0.021,65.8
2022-11-04T05:10:03,42.805,6.029,0.003,0.008,0.021,102.0,101.0,101.0,13.4,1505.2,325.5,-0.7,1.8,2471.125,13.28,0.008,20.6
2022-11-04T05:13:03,42.805,6.029,0.014,-0.001,-0.008,100.0,103.0,100.0,13.3,1505.2,324.4,-0.8,1.8,2471.168,13.29,0.014,94.1
2022-11-04T05:16:03,42.805,6.029,-0.004,0.004,-0.029,101.0,102.0,100.0,13.4,1505.2,327.0,-0.8,1.8,2471.17,13.29,0.005,315.0
2022-11-04T05:19:03,42.805,6.029,0.008,0.022,0.012,102.0,102.0,100.0,13.4,1505.2,321.5,-0.8,1.8,2471.149,13.29,0.023,20.0
2022-11-04T05:22:03,42.805,6.029,0.016,0.006,0.003,100.0,102.0,100.0,13.4,1505.2,327.7,-0.8,1.8,2471.135,13.29,0.017,69.4
2022-11-04T05:25:03,42.805,6.029,0.018,-0.004,-0.01,99.0,103.0,101.0,13.3,1505.2,326.6,-0.8,1.8,2471.169,13.29,0.018,102.5
2022-11-04T05:28:03,42.805,6.029,-0.001,0.0,-0.009,101.0,102.0,100.0,13.3,1505.2,328.5,-0.8,1.8,2471.13,13.29,0.001,270.0
2022-11-04T05:31:03,42.805,6.029,0.027,-0.007,-0.004,100.0,102.0,100.0,13.3,1505.2,330.9,-0.7,1.8,2471.127,13.29,0.027,104.5
2022-11-04T05:34:03,42.805,6.029,0.006,0.025,0.017,100.0,102.0,101.0,13.3,1505.2,328.1,-0.8,1.8,2471.099,13.29,0.025,13.5
2022-11-04T05:37:03,42.805,6.029,0.028,-0.018,-0.029,100.0,101.0,100.0,13.3,1505.2,323.2,-0.7,1.8,2471.15,13.29,0.033,122.7
2022-11-04T05:40:03,42.805,6.029,0.009,0.019,0.004,100.0,101.0,101.0,13.3,1505.2,332.7,-0.8,1.8,2471.095,13.29,0.021,25.3
2022-11-04T05:43:03,42.805,6.029,0.017,0.007,0.009,101.0,101.0,101.0,13.3,1505.2,323.8,-0.8,1.8,2471.127,13.29,0.018,67.6
2022-11-04T05:46:03,42.805,6.029,0.018,0.008,-0.005,101.0,103.0,100.0,13.3,1505.2,324.1,-0.7,1.8,2471.117,13.29,0.019,66.0
2022-11-04T05:49:03,42.805,6.029,0.032,0.005,0.005,99.0,101.0,102.0,13.4,1505.2,322.5,-0.8,1.9,2471.123,13.29,0.032,81.1
2022-11-04T05:52:03,42.805,6.029,0.028,0.002,0.028,101.0,102.0,101.0,13.3,1505.2,321.0,-0.7,1.8,2471.107,13.29,0.028,85.9
2022-11-04T05:55:03,42.805,6.029,0.0,0.014,0.001,101.0,103.0,100.0,13.4,1505.2,325.6,-0.8,1.8,2471.12,13.29,0.014,0.0
2022-11-04T05:58:03,42.805,6.029,0.029,0.008,-0.003,100.0,101.0,101.0,13.4,1505.2,324.5,-0.8,1.8,2471.109,13.29,0.03,74.6
2022-11-04T06:04:03,42.805,6.029,0.026,0.003,-0.024,101.0,102.0,100.0,13.3,1505.2,328.1,-0.8,1.8,2471.176,13.28,0.026,83.4
2022-11-04T06:07:03,42.805,6.029,0.031,-0.018,-0.035,101.0,101.0,100.0,13.4,1505.2,324.6,-0.8,1.8,2471.157,13.28,0.035,120.1
2022-11-04T06:10:03,42.805,6.029,0.027,-0.011,-0.001,99.0,103.0,101.0,13.4,1505.2,332.4,-0.8,1.8,2471.137,13.28,0.029,112.2
2022-11-04T06:13:03,42.805,6.029,0.0,0.007,-0.017,100.0,102.0,101.0,13.4,1505.2,325.4,-0.8,1.8,2471.14,13.29,0.007,0.0
2022-11-04T06:16:03,42.805,6.029,0.023,-0.003,-0.01,101.0,101.0,100.0,13.4,1505.2,334.1,-0.8,1.8,2471.155,13.29,0.023,97.4
2022-11-04T06:19:03,42.805,6.029,-0.011,0.023,-0.013,101.0,102.0,100.0,13.4,1505.2,322.8,-0.8,1.8,2471.17,13.29,0.025,334.4
2022-11-04T06:22:03,42.805,6.029,-0.022,0.023,0.001,99.0,100.0,102.0,13.3,1505.2,328.1,-0.8,1.8,2471.095,13.29,0.031,316.3
2022-11-04T06:25:03,42.805,6.029,0.024,0.004,-0.009,101.0,103.0,100.0,13.4,1505.2,335.3,-0.8,1.8,2471.103,13.29,0.024,80.5
2022-11-04T06:28:03,42.805,6.029,0.01,0.019,0.001,100.0,102.0,101.0,13.4,1505.2,324.4,-0.7,1.8,2471.146,13.29,0.021,27.8
2022-11-04T06:31:03,42.805,6.029,0.012,0.023,0.01,102.0,101.0,100.0,13.4,1505.2,332.0,-0.7,1.8,2471.081,13.29,0.025,27.6
2022-11-04T06:34:03,42.805,6.029,-0.006,0.036,-0.003,101.0,102.0,100.0,13.3,1505.2,333.0,-0.8,1.8,2471.098,13.29,0.036,350.5
2022-11-04T06:37:03,42.805,6.029,0.002,0.002,0.009,101.0,100.0,101.0,13.4,1505.2,321.4,-0.8,1.8,2471.057,13.29,0.002,45.0
2022-11-04T06:40:03,42.805,6.029,0.033,0.008,0.012,101.0,101.0,101.0,13.4,1505.2,327.2,-0.7,1.8,2471.147,13.29,0.033,76.4
2022-11-04T06:43:03,42.805,6.029,0.017,0.008,0.008,100.0,102.0,100.0,13.4,1505.2,321.4,-0.8,1.8,2471.094,13.29,0.018,64.8
2022-11-04T06:46:03,42.805,6.029,0.022,-0.007,-0.001,102.0,102.0,100.0,13.4,1505.2,332.0,-0.8,1.8,2471.129,13.29,0.023,107.6
2022-11-04T06:49:03,42.805,6.029,0.021,0.011,0.0,101.0,102.0,100.0,13.3,1505.2,325.9,-0.8,1.8,2471.12,13.29,0.023,62.4
2022-11-04T06:52:03,42.805,6.029,0.031,-0.014,-0.003,102.0,102.0,101.0,13.4,1505.2,328.6,-0.7,1.8,2471.108,13.29,0.034,114.3
2022-11-04T06:55:03,42.805,6.029,0.051,0.006,0.007,102.0,102.0,100.0,13.3,1505.2,326.6,-0.8,1.8,2471.101,13.29,0.051,83.3
2022-11-04T06:58:03,42.805,6.029,0.01,0.029,0.023,101.0,102.0,101.0,13.4,1505.2,317.8,-0.7,1.8,2471.12,13.29,0.03,19.0
2022-11-04T07:04:03,42.805,6.029,0.025,-0.002,0.007,101.0,103.0,101.0,13.4,1505.2,320.6,-0.8,1.8,2471.138,13.28,0.025,94.6
2022-11-04T07:07:03,42.805,6.029,0.015,0.001,-0.005,101.0,101.0,100.0,13.4,1505.2,329.8,-0.8,1.8,2471.121,13.28,0.015,86.2
2022-11-04T07:10:03,42.805,6.029,0.01,-0.007,-0.011,101.0,103.0,101.0,13.4,1505.2,324.5,-0.8,1.8,2471.16,13.28,0.012,125.0
2022-11-04T07:13:03,42.805,6.029,0.037,-0.001,0.005,101.0,103.0,100.0,13.3,1505.2,322.0,-0.8,1.8,2471.119,13.28,0.037,91.5
2022-11-04T07:16:03,42.805,6.029,0.009,-0.001,-0.021,101.0,102.0,100.0,13.4,1505.2,319.8,-0.8,1.8,2471.093,13.28,0.009,96.3
2022-11-04T07:19:03,42.805,6.029,-0.002,0.01,-0.001,101.0,102.0,101.0,13.4,1505.2,328.2,-0.8,1.8,2471.117,13.29,0.01,348.7
2022-11-04T07:22:03,42.805,6.029,0.037,0.006,0.03,101.0,102.0,100.0,13.3,1505.2,316.7,-0.8,1.9,2471.092,13.29,0.037,80.8
2022-11-04T07:25:03,42.805,6.029,0.013,-0.004,-0.011,101.0,102.0,101.0,13.4,1505.2,319.4,-0.8,1.8,2471.106,13.29,0.013,107.1
2022-11-04T07:28:03,42.805,6.029,0.038,-0.005,0.026,101.0,102.0,101.0,13.4,1505.2,325.2,-0.7,1.8,2471.08,13.29,0.038,97.5
2022-11-04T07:31:03,42.805,6.029,0.027,0.004,-0.006,101.0,102.0,100.0,13.4,1505.2,335.6,-0.8,1.8,2471.066,13.29,0.027,81.6
2022-11-04T07:34:03,42.805,6.029,0.039,0.007,0.014,101.0,102.0,101.0,13.4,1505.2,324.7,-0.8,1.8,2471.116,13.29,0.039,79.8
2022-11-04T07:37:03,42.805,6.029,0.048,0.01,0.012,102.0,102.0,101.0,13.4,1505.2,318.1,-0.8,1.9,2471.12,13.29,0.049,78.2
2022-11-04T07:40:03,42.805,6.029,0.008,0.015,0.001,102.0,102.0,99.0,13.3,1505.2,329.1,-0.8,1.8,2471.091,13.29,0.017,28.1
2022-11-04T07:43:03,42.805,6.029,-0.005,0.0,-0.021,101.0,102.0,101.0,13.4,1505.2,323.2,-0.7,1.8,2471.071,13.29,0.005,270.0
2022-11-04T07:46:03,42.805,6.029,0.023,-0.009,-0.005,102.0,102.0,99.0,13.4,1505.2,319.3,-0.7,1.8,2471.099,13.29,0.024,111.4
2022-11-04T07:49:03,42.805,6.029,0.024,0.001,0.009,102.0,101.0,102.0,13.4,1505.2,321.6,-0.8,1.8,2471.059,13.29,0.024,87.6
2022-11-04T07:52:03,42.805,6.029,-0.015,0.014,0.004,102.0,101.0,100.0,13.4,1505.2,329.8,-0.8,1.8,2471.091,13.29,0.02,313.0
2022-11-04T07:55:03,42.805,6.029,0.025,-0.001,0.006,101.0,103.0,100.0,13.4,1505.2,323.8,-0.8,1.8,2471.116,13.29,0.025,92.3
2022-11-04T07:58:03,42.805,6.029,0.001,-0.014,-0.032,101.0,101.0,101.0,13.3,1505.2,323.7,-0.8,1.8,2471.084,13.29,0.014,175.9
2022-11-04T08:04:03,42.805,6.029,0.019,-0.001,0.0,101.0,102.0,101.0,13.4,1505.2,323.7,-0.8,1.8,2471.135,13.28,0.019,93.0
2022-11-04T08:07:03,42.805,6.029,0.023,0.026,0.03,101.0,103.0,101.0,13.3,1505.2,324.8,-0.8,1.8,2471.143,13.28,0.034,41.5
2022-11-04T08:10:03,42.805,6.029,0.028,0.011,0.027,101.0,102.0,100.0,13.4,1505.2,328.7,-0.8,1.8,2471.142,13.28,0.03,68.6
2022-11-04T08:13:03,42.805,6.029,0.04,0.0,-0.001,101.0,102.0,100.0,13.3,1505.2,318.8,-0.8,1.8,2471.094,13.28,0.04,90.0
2022-11-04T08:16:03,42.805,6.029,0.022,0.024,0.027,101.0,103.0,100.0,13.3,1505.2,318.5,-0.7,1.8,2471.139,13.28,0.032,42.5
2022-11-04T08:19:03,42.805,6.029,0.0,0.014,0.009,100.0,103.0,101.0,13.4,1505.2,323.7,-0.8,1.8,2471.115,13.28,0.014,0.0
2022-11-04T08:22:03,42.805,6.029,0.007,0.028,0.021,101.0,101.0,100.0,13.4,1505.2,333.0,-0.8,1.8,2471.086,13.28,0.028,14.0
2022-11-04T08:25:03,42.805,6.029,0.014,0.009,-0.015,101.0,102.0,101.0,13.4,1505.2,320.6,-0.7,1.8,2471.083,13.29,0.016,57.3
2022-11-04T08:28:03,42.805,6.029,0.046,0.004,0.025,100.0,103.0,100.0,13.4,1505.2,323.1,-0.8,1.8,2471.102,13.29,0.046,85.0
2022-11-04T08:31:03,42.805,6.029,0.024,0.001,0.017,101.0,103.0,100.0,13.4,1505.2,331.3,-0.8,1.8,2471.107,13.29,0.024,87.6
2022-11-04T08:34:03,42.805,6.029,0.029,-0.003,0.009,100.0,103.0,99.0,13.4,1505.2,332.5,-0.8,1.8,2471.07,13.29,0.029,95.9
2022-11-04T08:37:03,42.805,6.029,0.057,-0.006,0.013,100.0,102.0,101.0,13.3,1505.2,332.7,-0.8,1.8,2471.054,13.29,0.057,96.0
2022-11-04T08:40:03,42.805,6.029,0.013,0.007,0.015,102.0,102.0,100.0,13.3,1505.2,328.5,-0.8,1.8,2471.037,13.29,0.014,61.7
2022-11-04T08:43:03,42.805,6.029,0.023,0.008,0.007,102.0,102.0,100.0,13.3,1505.2,324.4,-0.7,1.9,2471.065,13.29,0.024,70.8
2022-11-04T08:46:03,42.805,6.029,0.013,-0.003,0.0,102.0,102.0,100.0,13.4,1505.2,321.5,-0.7,1.8,2471.054,13.29,0.013,103.0
2022-11-04T08:49:03,42.805,6.029,0.027,0.011,-0.035,102.0,103.0,101.0,13.4,1505.2,318.9,-0.7,1.9,2471.05,13.29,0.029,67.8
2022-11-04T08:52:03,42.805,6.029,0.018,-0.003,0.007,101.0,104.0,100.0,13.4,1505.2,317.6,-0.8,1.8,2471.041,13.29,0.018,99.5
2022-11-04T08:55:03,42.805,6.029,0.044,-0.005,0.011,101.0,104.0,101.0,13.4,1505.2,335.1,-0.8,1.8,2471.076,13.29,0.044,96.5
2022-11-04T08:58:03,42.805,6.029,0.041,0.013,0.038,100.0,104.0,100.0,13.4,1505.2,320.9,-0.7,1.8,2471.101,13.29,0.043,72.4
2022-11-04T09:04:03,42.805,6.029,0.048,-0.004,-0.002,101.0,103.0,101.0,13.4,1505.2,326.9,-0.8,1.8,2471.096,13.28,0.048,94.8
2022-11-04T09:07:03,42.805,6.029,0.028,-0.01,0.011,101.0,103.0,101.0,13.4,1505.2,335.0,-0.8,1.8,2471.097,13.28,0.029,109.6
2022-11-04T09:10:03,42.805,6.029,0.026,-0.012,-0.021,101.0,102.0,103.0,13.4,1505.2,331.3,-0.8,1.8,2471.083,13.28,0.028,114.8
2022-11-04T09:13:03,42.805,6.029,0.045,0.011,0.006,101.0,103.0,100.0,13.4,1505.2,321.5,-0.8,1.8,2471.1,13.28,0.046,76.3
2022-11-04T09:16:03,42.805,6.029,0.022,0.002,0.03,102.0,102.0,100.0,13.4,1505.2,326.1,-0.8,1.8,2471.01,13.28,0.022,84.8
2022-11-04T09:19:03,42.805,6.029,0.017,-0.002,-0.014,101.0,102.0,101.0,13.4,1505.2,325.5,-0.8,1.8,2471.064,13.28,0.017,96.7
2022-11-04T09:22:03,42.805,6.029,0.022,0.021,0.015,102.0,102.0,101.0,13.4,1505.2,327.9,-0.7,1.8,2471.019,13.28,0.03,46.3
2022-11-04T09:25:03,42.805,6.029,0.031,-0.017,-0.008,100.0,102.0,101.0,13.4,1505.2,327.8,-0.8,1.8,2471.064,13.28,0.035,118.7
2022-11-04T09:28:03,42.805,6.029,0.026,0.005,-0.01,102.0,104.0,100.0,13.4,1505.2,321.2,-0.7,1.9,2471.03,13.29,0.026,79.1
2022-11-04T09:31:03,42.805,6.029,0.032,0.001,0.019,100.0,103.0,100.0,13.4,1505.2,316.3,-0.8,1.8,2471.059,13.29,0.032,88.2
2022-11-04T09:34:03,42.805,6.029,0.018,0.005,0.008,101.0,104.0,100.0,13.3,1505.2,334.4,-0.8,1.8,2471.056,13.28,0.018,74.5
2022-11-04T09:37:03,42.805,6.029,0.01,0.009,-0.004,102.0,102.0,100.0,13.3,1505.2,322.7,-0.7,1.8,2471.061,13.29,0.013,48.0
2022-11-04T09:40:03,42.805,6.029,0.021,-0.005,-0.018,101.0,102.0,100.0,13.4,1505.2,329.2,-0.7,1.8,2471.059,13.28,0.021,103.4
2022-11-04T09:43:03,42.805,6.029,0.027,-0.01,0.017,101.0,102.0,101.0,13.3,1505.2,327.9,-0.7,1.8,2471.053,13.28,0.028,110.3
2022-11-04T09:46:03,42.805,6.029,0.05,-0.003,0.029,101.0,103.0,100.0,13.3,1505.2,328.3,-0.8,1.8,2471.031,13.29,0.05,93.4
2022-11-04T09:49:03,42.805,6.029,0.024,-0.006,-0.01,101.0,104.0,99.0,13.3,1505.2,328.5,-0.8,1.8,2471.026,13.29,0.024,104.0
2022-11-04T09:52:03,42.805,6.029,0.041,-0.012,0.013,100.0,103.0,101.0,13.4,1505.2,325.0,-0.7,1.8,2471.014,13.29,0.042,106.3
2022-11-04T09:55:03,42.805,6.029,0.023,-0.01,-0.006,101.0,103.0,101.0,13.4,1505.2,329.1,-0.8,1.8,2471.035,13.28,0.025,113.5
2022-11-04T09:58:03,42.805,6.029,0.045,-0.002,0.026,100.0,101.0,101.0,13.4,1505.2,323.4,-0.8,1.8,2471.028,13.28,0.045,92.5
2022-11-04T10:04:03,42.805,6.029,0.037,-0.004,0.001,100.0,102.0,100.0,13.4,1505.2,331.1,-0.8,1.8,2471.081,13.28,0.037,96.2